[[{"header":{"parameterUnit":"m.s-1","parameterCategory":1,"la1":30.2991,"la2":30.254,"lo1":-89.0895,"lo2":-89.0444,"dy":0.0017,"dx":0.0017,"nx":28,"ny":28,"refTime":"2024-08-19T09:00:00:Z","depth":0,"parameterNumber":2,"parameterNumberName":"U-component_of_WINDS"},"data":[0,0,0,0,0,0,0,0,0,0,0,0,0,0,0,0,0,0,0,0,0,0,0,0,0,0,0,0,0,0,0,0,0,0,0,0,0,0,0,0,0,0,0,0,0,0,0,0,0,0,0,0,0,0,0,0,0,0,1.1199,1.12,0,1.1268,1.1269,1.127,1.1272,1.1271,1.127,1.127,1.1344,1.1346,1.1349,0,0,0,0,0,0,0,0,0,0,0,0,0,1.1073,1.1076,1.1199,1.12,1.1201,1.1268,1.1269,1.127,1.1272,1.1271,1.127,1.1269,1.1343,1.1346,1.1349,0,0,0,0,0,0,0,0,0,0,0,0,0,1.1134,1.1076,1.1199,1.121,1.1212,1.1268,1.1269,1.127,1.1272,1.1271,1.127,1.1269,1.1342,1.1346,1.135,1.1401,0,0,1.1362,1.1364,0,0,0,0,0,0,0,0,1.113,1.1139,1.1208,1.1209,1.1211,1.126,1.1252,1.1314,1.1273,1.125,1.127,1.1268,1.1317,1.1323,1.1339,1.1404,1.1407,1.1363,1.1365,1.1367,1.1368,0,0,0,0,0,0,0,1.1126,1.1136,1.1227,1.1209,1.1211,1.1213,1.122,1.1264,1.129,1.1251,1.1252,1.126,1.1318,1.1335,1.1341,1.1408,1.1363,1.1366,1.1369,1.137,1.1522,1.1523,0,0,0,0,0,0,1.1119,1.1132,1.1224,1.1229,1.1167,1.1216,1.1224,1.1246,1.1289,1.1295,1.1261,1.126,1.1329,1.1336,1.1343,1.1408,1.1367,1.1371,1.1373,1.152,1.1522,1.1524,0,0,0,0,0,0,1.1117,1.1128,1.1222,1.1181,1.1193,1.122,1.1244,1.1248,1.1265,1.1296,1.1301,1.1273,1.1328,1.1338,1.1387,1.141,1.1373,1.1377,1.1518,1.1521,1.1523,1.1536,0,0,0,0,0,0,1.1113,1.1127,1.1145,1.1181,1.1195,1.1263,1.1245,1.125,1.1272,1.1271,1.1309,1.1314,1.1328,1.1381,1.1391,1.1415,1.138,1.1516,1.1519,1.1522,1.1533,1.1538,1.1542,0,0,0,0,0,1.1108,1.1146,1.1146,1.1157,1.1218,1.1264,1.1272,1.1286,1.1273,1.1293,1.1314,1.1313,1.1406,1.1386,1.1397,1.1423,1.1515,1.1518,1.1522,1.1531,1.1537,1.1542,0,0,0,0,0,0,1.1113,1.1151,1.1151,1.1201,1.1229,1.1264,1.1289,1.1291,1.1324,1.1322,1.1338,1.1347,1.1396,1.1414,1.1391,1.1476,1.1459,1.1465,1.1463,1.1468,1.1473,1.1468,1.1383,0,0,0,0,0,1.112,1.1153,1.1184,1.1226,1.124,1.1262,1.1282,1.129,1.1321,1.1333,1.1356,1.1387,1.1423,1.1446,1.1481,1.1536,1.1545,1.156,1.1564,1.1568,1.1573,1.1606,1.1613,1.1535,1.1535,1.1535,0,0,1.1135,1.1159,1.1179,1.1227,1.125,1.1285,1.1272,1.1309,1.1336,1.1339,1.1387,1.1405,1.1441,1.1493,1.1518,1.151,1.1597,1.1572,1.1574,1.1578,1.161,1.1617,1.1624,1.1537,1.1537,1.1536,0,0,1.118,1.1201,1.1238,1.1261,1.1295,1.131,1.1319,1.1354,1.1367,1.1415,1.1418,1.1451,1.1512,1.1538,1.1559,1.1615,1.1616,1.1625,1.165,1.1681,1.1687,1.1693,1.1715,1.1723,1.1631,1.1631,1.1631,0,1.1194,1.1246,1.1258,1.1295,1.1318,1.1321,1.136,1.1382,1.1427,1.1443,1.1433,1.1511,1.1535,1.1595,1.1608,1.1624,1.1637,1.1622,1.1685,1.1691,1.1696,1.1718,1.1726,1.1632,1.1631,1.1631,1.1631,0,1.1263,1.1299,1.1325,1.1367,1.1392,1.1431,1.145,1.1474,1.148,1.1497,1.1547,1.1576,1.1617,1.1632,1.1638,1.1693,1.1688,1.1681,1.1665,1.1705,1.1725,1.1733,1.1633,1.1633,1.1632,1.1632,0,0,1.1313,1.1362,1.1372,1.1392,1.143,1.1459,1.1498,1.1538,1.156,1.159,1.1625,1.1677,1.1672,1.1696,1.1705,1.1733,1.1778,1.1724,1.1725,1.1735,1.1843,1.1849,1.1858,1.1779,1.178,1.1782,1.1841,0,1.1364,1.1433,1.1445,1.1506,1.1541,1.1545,1.158,1.1608,1.1625,1.1658,1.1676,1.1714,1.1703,1.1718,1.1745,1.1767,1.1801,1.1762,1.1814,1.1815,1.1807,1.1869,1.1875,1.193,1.1849,1.185,1.1851,0,1.1432,1.1464,1.1528,1.1564,1.1579,1.161,1.1648,1.1679,1.1712,1.1722,1.1749,1.1756,1.1799,1.1779,1.184,1.1814,1.1836,1.185,1.1852,1.1859,1.1837,1.1879,1.1947,1.1956,1.1864,1.1863,1.1862,0,1.1465,1.1524,1.1571,1.1588,1.163,1.1652,1.167,1.1702,1.1725,1.176,1.1776,1.1814,1.1836,1.1867,1.1885,1.1868,1.1945,1.1926,1.1957,1.1957,1.1974,1.1973,1.2048,1.1985,1.1985,1.1984,1.1984,0,1.1522,1.1562,1.1587,1.1616,1.1661,1.1676,1.172,1.1739,1.1767,1.1801,1.1807,1.1839,1.1859,1.1895,1.1909,1.1958,1.1968,1.1979,1.1983,1.198,1.1978,1.1995,1.1993,1.1987,1.1986,1.1986,1.1985,0,1.1567,1.1585,1.1637,1.1672,1.1682,1.1714,1.1745,1.1774,1.1791,1.1834,1.1845,1.1872,1.1914,1.1934,1.1986,1.1996,1.2053,1.2053,1.2042,1.2044,1.2074,1.2072,1.2164,1.2178,1.2103,1.2104,1.2104,0,1.1603,1.1634,1.1672,1.1695,1.1714,1.175,1.1775,1.1791,1.1816,1.1857,1.1882,1.1924,1.1959,1.2026,1.2051,1.2092,1.2095,1.2124,1.2101,1.2097,1.2098,1.2097,1.2101,1.2129,1.213,1.213,1.2131,0,1.1665,1.1673,1.1707,1.1745,1.1774,1.1805,1.1835,1.1854,1.1875,1.1904,1.1946,1.1973,1.2027,1.207,1.2112,1.2133,1.2137,1.2138,1.2147,1.2146,1.2139,1.2145,1.2056,1.2136,1.2135,1.2135,1.2135,1.2135,1.1709,1.1737,1.1769,1.1807,1.1832,1.186,1.189,1.191,1.1946,1.199,1.1998,1.2044,1.2078,1.2135,1.2158,1.2196,1.2189,1.2202,1.2206,1.221,1.2213,1.2131,1.2203,1.2203,1.2203,1.2203,1.2203,0,1.1773,1.1794,1.1829,1.1872,1.1903,1.1901,1.1935,1.1962,1.2002,1.2033,1.2067,1.2117,1.2159,1.2187,1.223,1.2255,1.2258,1.2266,1.2265,1.2271,1.2215,1.2203,1.2263,1.2263,1.2263,1.2263,1.2263,1.2263,1.1811,1.1859,1.1871,1.1932,1.1953,1.1998,1.2018,1.2045,1.207,1.2125,1.216,1.2178,1.2208,1.2253,1.2293,1.23,1.2317,1.2325,1.2333,1.2281,1.2274,1.2268,1.2258,1.2328,1.2328,1.2386,1.2387,1.2387]},{"header":{"parameterUnit":"m.s-1","parameterCategory":1,"la1":30.2991,"la2":30.254,"lo1":-89.0895,"lo2":-89.0444,"dy":0.0017,"dx":0.0017,"nx":28,"ny":28,"refTime":"2024-08-19T09:00:00:Z","depth":0,"parameterNumber":3,"parameterNumberName":"V-component_of_WINDS"},"data":[0,0,0,0,0,0,0,0,0,0,0,0,0,0,0,0,0,0,0,0,0,0,0,0,0,0,0,0,0,0,0,0,0,0,0,0,0,0,0,0,0,0,0,0,0,0,0,0,0,0,0,0,0,0,0,0,0,0,-2.5023,-2.5023,0,-2.5062,-2.5063,-2.5063,-2.5133,-2.5134,-2.5136,-2.5137,-2.5173,-2.5173,-2.5173,0,0,0,0,0,0,0,0,0,0,0,0,0,-2.5007,-2.5007,-2.5023,-2.5023,-2.5024,-2.5062,-2.5063,-2.5063,-2.5133,-2.5134,-2.5136,-2.5138,-2.5173,-2.5173,-2.5173,0,0,0,0,0,0,0,0,0,0,0,0,0,-2.5027,-2.5007,-2.5023,-2.5063,-2.5067,-2.5062,-2.5063,-2.5063,-2.5133,-2.5135,-2.5137,-2.5138,-2.5173,-2.5173,-2.5172,-2.5129,0,0,-2.5171,-2.5171,0,0,0,0,0,0,0,0,-2.5025,-2.5027,-2.5057,-2.5061,-2.5065,-2.5095,-2.507,-2.5085,-2.5132,-2.5108,-2.5137,-2.5139,-2.5145,-2.5147,-2.515,-2.5131,-2.5133,-2.5171,-2.5171,-2.5171,-2.5171,0,0,0,0,0,0,0,-2.5024,-2.5026,-2.5038,-2.5057,-2.5062,-2.5079,-2.5084,-2.5073,-2.5114,-2.511,-2.5115,-2.5119,-2.5148,-2.515,-2.5151,-2.5133,-2.5171,-2.5171,-2.517,-2.517,-2.5084,-2.5082,0,0,0,0,0,0,-2.5017,-2.5024,-2.5037,-2.504,-2.505,-2.5078,-2.5083,-2.5083,-2.5115,-2.5122,-2.5117,-2.5122,-2.515,-2.5152,-2.5153,-2.5107,-2.5171,-2.517,-2.517,-2.5086,-2.5084,-2.5082,0,0,0,0,0,0,-2.5016,-2.5018,-2.5036,-2.5033,-2.5037,-2.5076,-2.5075,-2.5083,-2.5086,-2.512,-2.5128,-2.5112,-2.5152,-2.5153,-2.5136,-2.5109,-2.517,-2.517,-2.5089,-2.5085,-2.5083,-2.5013,0,0,0,0,0,0,-2.5016,-2.5017,-2.5001,-2.5033,-2.5037,-2.5018,-2.5073,-2.5082,-2.5085,-2.5092,-2.5118,-2.5124,-2.5153,-2.5136,-2.5135,-2.511,-2.5169,-2.5091,-2.5087,-2.5084,-2.5018,-2.5008,-2.5,0,0,0,0,0,-2.5015,-2.4978,-2.5,-2.5001,-2.5018,-2.5016,-2.5019,-2.5054,-2.5083,-2.5067,-2.509,-2.5123,-2.5112,-2.5134,-2.5133,-2.5107,-2.5093,-2.5088,-2.5084,-2.5022,-2.501,-2.5,0,0,0,0,0,0,-2.494,-2.4983,-2.5007,-2.498,-2.4994,-2.5028,-2.501,-2.504,-2.5045,-2.5051,-2.5094,-2.5099,-2.5077,-2.509,-2.5113,-2.5069,-2.5108,-2.5103,-2.5061,-2.505,-2.5041,-2.5039,-2.5169,0,0,0,0,0,-2.4921,-2.4917,-2.4954,-2.4926,-2.4933,-2.497,-2.497,-2.4997,-2.5013,-2.5019,-2.504,-2.5053,-2.5053,-2.5052,-2.5054,-2.502,-2.5028,-2.5002,-2.4993,-2.4985,-2.4981,-2.4967,-2.4957,-2.5067,-2.5067,-2.5067,0,0,-2.4881,-2.4903,-2.4898,-2.4912,-2.4926,-2.4921,-2.4974,-2.4965,-2.4962,-2.5017,-2.5003,-2.5019,-2.5037,-2.5012,-2.5002,-2.5022,-2.4953,-2.498,-2.4973,-2.4973,-2.4961,-2.4951,-2.4942,-2.5064,-2.5064,-2.5065,0,0,-2.4805,-2.4821,-2.4801,-2.4815,-2.4837,-2.4862,-2.4858,-2.4888,-2.4901,-2.4888,-2.493,-2.4926,-2.4924,-2.4936,-2.4942,-2.4874,-2.4905,-2.4873,-2.4825,-2.4811,-2.4803,-2.4795,-2.4773,-2.4764,-2.4868,-2.4868,-2.4868,0,-2.4751,-2.4746,-2.4787,-2.4777,-2.4783,-2.4834,-2.4815,-2.4826,-2.4846,-2.4849,-2.4872,-2.4873,-2.4888,-2.4869,-2.4852,-2.4854,-2.4851,-2.487,-2.4801,-2.4794,-2.4787,-2.4767,-2.4758,-2.4864,-2.4864,-2.4865,-2.4865,0,-2.4681,-2.4677,-2.4658,-2.4679,-2.4683,-2.4668,-2.4706,-2.4705,-2.4732,-2.4755,-2.4742,-2.4762,-2.4771,-2.4768,-2.4792,-2.4752,-2.4764,-2.4793,-2.4833,-2.4772,-2.4754,-2.4746,-2.4858,-2.486,-2.4861,-2.4862,0,0,-2.4558,-2.4604,-2.4597,-2.4609,-2.4638,-2.4635,-2.4623,-2.4633,-2.4632,-2.4644,-2.4637,-2.4635,-2.4664,-2.467,-2.4697,-2.4684,-2.4632,-2.4715,-2.4716,-2.4701,-2.4592,-2.4571,-2.4561,-2.4653,-2.4652,-2.4651,-2.4591,0,-2.449,-2.4474,-2.4511,-2.4486,-2.4484,-2.4534,-2.4524,-2.454,-2.4562,-2.4563,-2.4587,-2.4586,-2.4622,-2.4627,-2.4617,-2.4641,-2.4611,-2.4645,-2.4647,-2.4646,-2.4642,-2.4551,-2.4529,-2.4471,-2.4584,-2.4582,-2.4582,0,-2.4408,-2.4419,-2.4394,-2.4428,-2.4429,-2.4419,-2.4433,-2.4433,-2.4453,-2.447,-2.4479,-2.4511,-2.4503,-2.4541,-2.453,-2.4553,-2.4556,-2.4568,-2.4566,-2.4569,-2.4611,-2.4553,-2.4454,-2.4446,-2.457,-2.4571,-2.4572,0,-2.4324,-2.4333,-2.432,-2.4328,-2.4366,-2.4359,-2.4374,-2.4397,-2.4401,-2.4413,-2.4416,-2.4426,-2.4431,-2.4438,-2.4472,-2.4496,-2.4458,-2.4498,-2.4472,-2.4472,-2.4463,-2.4463,-2.4364,-2.4461,-2.4462,-2.4462,-2.4462,0,-2.4244,-2.4228,-2.4283,-2.4275,-2.4259,-2.4302,-2.4284,-2.4304,-2.4325,-2.4322,-2.4364,-2.4361,-2.4406,-2.4407,-2.4434,-2.4422,-2.4423,-2.4437,-2.4445,-2.4435,-2.4433,-2.4438,-2.4443,-2.4459,-2.446,-2.446,-2.4461,0,-2.4148,-2.4184,-2.4174,-2.4212,-2.4221,-2.4208,-2.424,-2.4235,-2.426,-2.4256,-2.4258,-2.4297,-2.4301,-2.4336,-2.4347,-2.4365,-2.4344,-2.4358,-2.4338,-2.4343,-2.4316,-2.4319,-2.4218,-2.4208,-2.4309,-2.4308,-2.4308,0,-2.4096,-2.4085,-2.4122,-2.4125,-2.4139,-2.4141,-2.4147,-2.4189,-2.4194,-2.4218,-2.421,-2.4218,-2.4227,-2.4231,-2.426,-2.427,-2.4286,-2.425,-2.4287,-2.4278,-2.4288,-2.4289,-2.4289,-2.4242,-2.4241,-2.4239,-2.4239,0,-2.4,-2.4019,-2.4027,-2.4042,-2.4048,-2.4061,-2.4076,-2.4075,-2.4122,-2.4125,-2.4131,-2.4138,-2.4151,-2.4159,-2.4174,-2.419,-2.4222,-2.4227,-2.4222,-2.4212,-2.4201,-2.4209,-2.4318,-2.4229,-2.423,-2.4231,-2.4231,-2.4232,-2.3926,-2.3919,-2.3946,-2.3954,-2.3971,-2.3985,-2.3983,-2.4009,-2.4015,-2.4031,-2.4055,-2.4058,-2.4081,-2.4105,-2.4118,-2.4121,-2.414,-2.4132,-2.413,-2.4128,-2.4124,-2.42,-2.4124,-2.4124,-2.4124,-2.4125,-2.4125,0,-2.3834,-2.3855,-2.3862,-2.3884,-2.389,-2.3922,-2.3941,-2.3944,-2.3947,-2.3967,-2.3976,-2.3984,-2.3992,-2.4023,-2.4035,-2.4032,-2.4047,-2.4034,-2.4035,-2.4039,-2.4105,-2.4109,-2.4021,-2.4021,-2.4021,-2.4021,-2.4021,-2.4021,-2.3788,-2.378,-2.3803,-2.3804,-2.3825,-2.383,-2.3839,-2.3852,-2.3869,-2.3876,-2.3885,-2.3905,-2.393,-2.3945,-2.3954,-2.3963,-2.3966,-2.3948,-2.3962,-2.4024,-2.4034,-2.4043,-2.4048,-2.3948,-2.3948,-2.3896,-2.3896,-2.3895]}]]